Skip Page Navigation
NASA JPL Caltech
NASA Logo - Jet Propulsion Laboratory + View the NASA Portal
+ Center for Near-Earth Object Studies
JPL Home Earth Solar System Stars & Galaxies Technology
JPL Solar System Dynamics
BODIES ORBITS EPHEMERIDES TOOLS PHYSICAL DATA DISCOVERY FAQ SITE MAP
JPL Small-Body Database Browser
Search: [ help ]  
212551 (2006 SL30)
Classification: Main-belt Asteroid          SPK-ID: 2212551
Ephemeris | Orbit Diagram | Orbital Elements | Mission Design | Physical Parameters | Discovery Circumstances | Close-Approach Data ]

[ show orbit diagram ]
Orbital Elements at Epoch 2459000.5 (2020-May-31.0) TDB
Reference: JPL 8 (heliocentric ecliptic J2000)
 Element Value Uncertainty (1-sigma)   Units 
e .02639782880734092 6.1202e-08  
a 2.760874139902321 3.5585e-08 au
q 2.687993056998565 1.7941e-07 au
i 5.234296276941278 6.9799e-06 deg
node 266.5951586101237 8.4928e-05 deg
peri 351.4719180852772 0.0001779 deg
M 71.31208713396133 0.00015858 deg
tp 2458668.583389533207
(2019-Jul-04.08338953)
0.00073688 TDB
period 1675.592239273278
4.59
3.2395e-05
8.869e-08
d
yr
n .2148494076077458 4.1538e-09 deg/d
Q 2.833755222806077 3.6524e-08 au
  Orbit Determination Parameters
   # obs. used (total)      153  
   data-arc span      5197 days (14.23 yr)  
   first obs. used      2003-12-29  
   last obs. used      2018-03-22  
   planetary ephem.      DE431  
   SB-pert. ephem.      SB431-N16  
   condition code      0  
   norm. resid. RMS      .55973  
   source      ORB  
   producer      Otto Matic  
   solution date      2019-Jul-14 07:54:57  

Additional Information
 Earth MOID = 1.67268 au 
 Jupiter MOID = 2.18565 au 
 T_jup = 3.335 
[ hide covariance matrix ]
Orbital Elements at Epoch 2456940.5 (2014-Oct-10.0) TDB
Reference: JPL 8 (heliocentric ecliptic J2000)
 Element Value Uncertainty (1-sigma)   Units 
e .02535245984278064 6.2361e-08  
q 2.691106677989944 1.8183e-07 au
tp 2457012.707788125023
(2014-Dec-21.20778813)
0.00075055 TDB
node 266.6424068312134 8.4963e-05 deg
peri 355.9304563526467 0.00018137 deg
i 5.232381321381359 6.9757e-06 deg
  Orbit Determination Parameters
   # obs. used (total)      153  
   data-arc span      5197 days (14.23 yr)  
   first obs. used      2003-12-29  
   last obs. used      2018-03-22  
   planetary ephem.      DE431  
   SB-pert. ephem.      SB431-N16  
   condition code      0  
   norm. resid. RMS      .55973  
   source      ORB  
   producer      Otto Matic  
   solution date      2019-Jul-14 07:54:57  

Additional Information
 Jupiter MOID = 2.18565 au 
 T_jup = 3.335 
Orbit Covariance (6×6)
  e q tp node peri i
e 3.888920339851502E-15 -1.114516428957809E-14 1.000945229429853E-11 2.684224712152468E-14 2.117584470237936E-12 4.830194412321393E-16
q -1.114516428957809E-14 3.306167251031696E-14 -2.411129154139333E-11 -7.601740777667922E-14 -5.10543487733588E-12 -4.603941024736611E-16
tp 1.000945229429853E-11 -2.411129154139333E-11 5.633292304969058E-7 3.185887014779644E-11 1.203467349083747E-7 1.424395452453147E-11
node 2.684224712152468E-14 -7.601740777667922E-14 3.185887014779644E-11 7.218760503080259E-9 -7.181059646022642E-9 1.366459517214073E-10
peri 2.117584470237936E-12 -5.10543487733588E-12 1.203467349083747E-7 -7.181059646022642E-9 3.289388083923761E-8 -1.330988015103346E-10
i 4.830194412321393E-16 -4.603941024736611E-16 1.424395452453147E-11 1.366459517214073E-10 -1.330988015103346E-10 4.866003318191308E-11

Ephemeris | Orbit Diagram | Orbital Elements | Mission Design | Physical Parameters | Discovery Circumstances | Close-Approach Data ]

Physical Parameter Table
Parameter Symbol Value Units Sigma Reference Notes
absolute magnitude H 16.4   n/a MPO437020  

212551 (2006 SL30)          Discovered 2006-Sep-17 by Spacewatch at Kitt Peak
Reference: 20090409/Numbers.arcLast Updated: 2009-04-10

[ show close-approach data ]
Alternate Designations
 2006 SL30 = 2007 VJ317 
Ephemeris | Orbit Diagram | Orbital Elements | Mission Design | Physical Parameters | Discovery Circumstances | Close-Approach Data ]
ABOUT SSD CREDITS/AWARDS PRIVACY/COPYRIGHT GLOSSARY LINKS
FirstGov 2020-Jul-06 00:51 UT
(server date/time)  
NASA Home Page
Site Manager:   Ryan S. Park
Webmaster  Alan B. Chamberlin